Weather History for Burlington, CO

Change the Weather History Date:

Monday, December 10, 2012

  Actual Average Record
Temperature  
Mean Temperature 22 °F 29 °F  
Max Temperature 42 °F 42 °F 76 °F (1939)
Min Temperature 1 °F 16 °F -14 °F (1972)
Degree Days  
Heating Degree Days 45    
Moisture  
Dew Point 3 °F    
Average Humidity 45    
Maximum Humidity 72    
Minimum Humidity 16    
Precipitation  
Precipitation 0.00 in 0.01 in 0.31 in (1985)
Month to date precipitation T 0.18  
Year to date precipitation 10.56 17.21  
Sea Level Pressure  
Sea Level Pressure 30.04 in    
Wind  
Wind Speed 11 mph (WNW)    
Max Wind Speed 17 mph    
Max Gust Speed 25 mph    
Visibility 10 miles    
Events      
T = Trace of Precipitation, MM = Missing Value Source: NWS Daily Summary

Daily Weather History Graph

Daily Weather History Graph

Search for Another Location

Airport:

Trip Planner

Search our weather history database for the weather conditions in past years. The results will help you decide how hot, cold, wet, or windy it might be!

Date:

Astronomy

Dec. 10, 2012 Rise Set
Actual Time 6:58 AM MST 4:26 PM MST
Civil Twilight 6:28 AM MST 4:56 PM MST
Nautical Twilight 5:54 AM MST 5:29 PM MST
Astronomical Twilight 5:22 AM MST 6:02 PM MST
Moon 3:44 AM MST (12/10) 2:16 PM MST (12/10)
Length of Visible Light 10h 27m
Length of Day
9h 27m
Waning Crescent, 10% of the Moon is Illuminated
Dec 10
Waning Crescent
Dec 13
New
Dec 19
First Quarter
Dec 28
Full
Jan 4
Last Quarter

Hourly Weather History & Observations

Time (MST) Temp. Windchill Dew Point Humidity Pressure Visibility Wind Dir Wind Speed Gust Speed Precip Events Conditions
12:53 AM 1.9 °F -14.7 °F -5.1 °F 72% 30.24 in 10.0 mi WSW 11.5 mph - N/A   Clear
1:53 AM 3.0 °F -11.5 °F -5.1 °F 69% 30.21 in 10.0 mi WSW 9.2 mph - N/A   Clear
2:53 AM 1.9 °F -13.8 °F -5.1 °F 72% 30.19 in 10.0 mi WSW 10.4 mph - N/A   Clear
3:53 AM 8.1 °F -7.7 °F -0.9 °F 67% 30.14 in 10.0 mi SW 12.7 mph - N/A   Clear
4:53 AM 8.1 °F -6.2 °F -0.0 °F 70% 30.13 in 10.0 mi SW 10.4 mph - N/A   Clear
6:53 AM 14.0 °F -2.5 °F 3.9 °F 64% 30.09 in 10.0 mi WSW 17.3 mph - N/A   Clear
7:53 AM 18.0 °F 2.6 °F 3.9 °F 54% 30.10 in 10.0 mi WSW 17.3 mph 25.3 mph N/A   Overcast
8:53 AM 25.0 °F 13.1 °F 3.9 °F 41% 30.07 in 10.0 mi WSW 13.8 mph - N/A   Clear
9:53 AM 33.1 °F 23.9 °F -2.0 °F 22% 30.06 in 10.0 mi WSW 12.7 mph - N/A   Scattered Clouds
10:53 AM 37.9 °F 29.2 °F -5.1 °F 16% 30.03 in 10.0 mi WNW 15.0 mph - N/A   Overcast
11:53 AM 39.9 °F 32.5 °F -0.9 °F 18% 29.98 in 10.0 mi NW 12.7 mph - N/A   Partly Cloudy
12:53 PM 39.9 °F 31.8 °F -0.0 °F 19% 29.96 in 10.0 mi NW 15.0 mph - N/A   Clear
1:53 PM 39.9 °F 32.9 °F 3.9 °F 22% 29.93 in 10.0 mi NNW 11.5 mph 19.6 mph N/A   Clear
2:53 PM 39.9 °F 33.4 °F 5.0 °F 23% 29.94 in 10.0 mi NNW 10.4 mph 19.6 mph N/A   Clear
3:53 PM 37.0 °F 31.0 °F 6.1 °F 28% 29.94 in 10.0 mi NNW 8.1 mph - N/A   Clear
4:53 PM 30.0 °F 25.2 °F 3.9 °F 33% 29.97 in 10.0 mi WSW 4.6 mph - N/A   Scattered Clouds
5:53 PM 28.9 °F 22.8 °F 5.0 °F 36% 29.98 in 10.0 mi WNW 5.8 mph - N/A   Overcast
6:53 PM 30.0 °F 23.2 °F 6.1 °F 36% 29.99 in 10.0 mi NNW 6.9 mph - N/A   Overcast
7:53 PM 28.9 °F 19.8 °F 7.0 °F 40% 30.01 in 10.0 mi NW 10.4 mph - N/A   Overcast
8:53 PM 27.0 °F 18.0 °F 12.0 °F 53% 30.00 in 10.0 mi NNW 9.2 mph - N/A   Scattered Clouds
9:53 PM 25.0 °F 18.1 °F 10.9 °F 55% 30.00 in 10.0 mi NNW 5.8 mph - N/A   Overcast
10:53 PM 21.0 °F 12.4 °F 9.0 °F 60% 30.01 in 10.0 mi NW 6.9 mph - N/A   Clear
11:53 PM 21.9 °F 11.0 °F 10.9 °F 63% 30.01 in 10.0 mi NW 10.4 mph - N/A   Mostly Cloudy